Back to catalog

THOR ABLESTAR DEB

AliveLEO
NORAD 404·DEBRIS·🇺🇸 United States

Launched Jun 29, 1961 from Cape Canaveral Space Force Station

Loading…

Next Passes (next 24 hours)

TLE

FreshSource: Space-Track

Epoch: Sep 7, 2026, 01:46 UTC

1 00404U 61015ED  26250.07363796  .00000109  00000-0  31517-3 0  9997
2 00404  66.4689 291.9181 0549977 128.3039 236.8781 12.92580069 53822

Track THOR ABLESTAR DEB in real time with AllMySat

Download on the App Store